This is the latest recevied weather packets stored in our database for station/object EA1GGY-1. If no packets are shown the sender has not sent any weather packets the latest 10 day(s).
| Time | Temp. | Humidity | Pressure | Rain* | Wind** | Luminosity | Snow |
|---|---|---|---|---|---|---|---|
| 1777888143 | 9.44° C | 71% | 1009 hPa | - | - | - | - |
| 1777887542 | 9.44° C | 68% | 1009 hPa | - | - | - | - |
| 1777886941 | 9.44° C | 70% | 1008.9 hPa | - | - | - | - |
| 1777886341 | 9.44° C | 68% | 1008.9 hPa | - | - | - | - |
| 1777885740 | 8.89° C | 73% | 1009 hPa | - | - | - | - |
| 1777885139 | 8.33° C | 71% | 1009 hPa | - | - | - | - |
| 1777884538 | 8.33° C | 73% | 1008.9 hPa | - | - | - | - |
| 1777883937 | 8.89° C | 73% | 1009 hPa | - | - | - | - |
| 1777883341 | 8.89° C | 74% | 1009 hPa | - | - | - | - |
| 1777882735 | 8.33° C | 73% | 1008.8 hPa | - | - | - | - |
| 1777882136 | 8.33° C | 78% | 1008.8 hPa | - | - | - | - |
| 1777881534 | 8.33° C | 77% | 1008.8 hPa | - | - | - | - |
| 1777880932 | 8.33° C | 77% | 1008.8 hPa | - | - | - | - |
| 1777880332 | 8.33° C | 77% | 1008.7 hPa | - | - | - | - |
| 1777879732 | 8.33° C | 78% | 1008.7 hPa | - | - | - | - |
| 1777879130 | 8.33° C | 77% | 1008.6 hPa | - | - | - | - |
| 1777878530 | 8.33° C | 78% | 1008.6 hPa | - | - | - | - |
| 1777877930 | 7.78° C | 75% | 1008.6 hPa | - | - | - | - |
| 1777877328 | 7.78° C | 78% | 1008.5 hPa | - | - | - | - |
| 1777876727 | 7.22° C | 78% | 1008.5 hPa | - | - | - | - |
| 1777876126 | 7.22° C | 78% | 1008.4 hPa | - | - | - | - |
| 1777875525 | 7.22° C | 79% | 1008.3 hPa | - | - | - | - |
| 1777874924 | 6.67° C | 80% | 1008.3 hPa | - | - | - | - |
| 1777874325 | 6.67° C | 77% | 1008.2 hPa | - | - | - | - |
| 1777873723 | 7.22° C | 76% | 1008.1 hPa | - | - | - | - |
* Rain since midnight (hover to see other rain measurements)
** Current wind speed in m/s (hover to see current wind gust speed)